User: anonymous   Login
Location: Kalberh�ni
(46.4610°N, 7.2453°E)
Time: 21:03:16
(UTC+00:00)
Language:

FENGYUN 1C DEB - Orbit

View from above orbital plane
View from above orbital plane
View from above satellite
View from above satellite

Ground track
Ground track

The orbit data is extracted from the following two-line orbital elements,

1 31183U 99025BJM 22024.19592459  .00000894  00000-0  33593-3 0  9992
2 31183  98.9905 282.3101 0062767 334.9973 177.1010 14.33103281770716
Epoch (UTC): 24 January 2022 04:42:07
Eccentricity: 0.0062767
inclination: 98.9905°
perigee height: 736 km
apogee height: 826 km
right ascension of ascending node: 282.3101°
argument of perigee: 334.9973°
revolutions per day: 14.33103281
mean anomaly at epoch: 177.1010°
orbit number at epoch: 77071

The dashed part of the orbit path shows where the satellite is in the earth's shadow,  

DLR